Cork, Ireland

6:21 AM GMT on February 23, 2017 (GMT +0000)
Cork

Weather History for EICK - January, 2013

Change the Weather History Date:

Tuesday, January 8, 2013

  Actual Average Record
Temperature  
Mean Temperature 45 °F -  
Max Temperature 51 °F 46 °F 53 °F (2007)
Min Temperature 39 °F 37 °F 30 °F (1997)
Degree Days  
Heating Degree Days 20    
Moisture  
Dew Point 46 °F    
Average Humidity 93    
Maximum Humidity 100    
Minimum Humidity 76    
Precipitation  
Precipitation 0.02 in 0.18 in - ()
Sea Level Pressure  
Sea Level Pressure 30.15 in    
Wind  
Wind Speed 11 mph ()    
Max Wind Speed 21 mph    
Max Gust Speed -    
Visibility 5.2 miles    
Events Fog , Rain    
Averages and records for this station are not official NWS values.
T = Trace of Precipitation, MM = Missing Value Source: Averaged Metar Reports

Daily Weather History Graph

Daily Weather History Graph

Search for Another Location

Airport or City:

Trip Planner

Search our weather history database for the weather conditions in past years. The results will help you decide how hot, cold, wet, or windy it might be!

Date:

Astronomy

Jan. 08, 2013 Rise Set
Actual Time 8:39 AM GMT 4:42 PM GMT
Civil Twilight 7:59 AM GMT 5:22 PM GMT
Nautical Twilight 7:16 AM GMT 6:05 PM GMT
Astronomical Twilight 6:35 AM GMT 6:45 PM GMT
Moon 4:53 AM GMT (1/8) 1:34 PM GMT (1/8)
Length of Visible Light 9h 23m
Length of Day
8h 03m
Waning Crescent, 15% of the Moon is Illuminated
Jan 8
Waning Crescent
Jan 11
New
Jan 18
First Quarter
Jan 27
Full
Feb 3
Last Quarter

Hourly Weather History & Observations

Time (GMT) Temp. Windchill Dew Point Humidity Pressure Visibility Wind Dir Wind Speed Gust Speed Precip Events Conditions
12:00 AM 51 °F - 51 °F 100% 30.02 in 0 mi SSW 20.1 mph - - Rain Light Rain
12:00 AM 51.8 °F - 51.8 °F 100% 30.01 in 0.2 mi SSW 20.7 mph - N/A Fog , Rain Light Rain
12:30 AM 51.8 °F - 51.8 °F 100% 30.01 in 0.5 mi SSW 18.4 mph - N/A Fog , Rain Light Rain
1:00 AM 51.8 °F - 51.8 °F 100% 30.01 in 1.1 mi SSW 19.6 mph - N/A Rain Light Rain
1:30 AM 51.8 °F - 51.8 °F 100% 30.01 in 1.6 mi SSW 18.4 mph - N/A Rain Light Rain
2:00 AM 51.8 °F - 51.8 °F 100% 30.01 in 1.6 mi SSW 18.4 mph - N/A Rain Light Rain
2:30 AM 51.8 °F - 51.8 °F 100% 30.01 in 0.3 mi SSW 15.0 mph - N/A Fog , Rain Light Rain
3:00 AM 51.8 °F - 51.8 °F 100% 30.01 in 0.3 mi SSW 12.7 mph - N/A Fog , Rain Light Rain
3:30 AM 51.8 °F - 51.8 °F 100% 30.04 in 0.3 mi SSW 12.7 mph - N/A Fog Light Drizzle
4:00 AM 51.8 °F - 51.8 °F 100% 30.04 in - SSW 11.5 mph - N/A Rain Light Rain
4:30 AM 51.8 °F - 51.8 °F 100% 30.04 in 2.2 mi SW 8.1 mph - N/A Rain Light Rain
5:00 AM 51.8 °F - 51.8 °F 100% 30.04 in 1.9 mi SW 5.8 mph - N/A   Light Drizzle
5:30 AM 51.8 °F - 51.8 °F 100% 30.04 in 6.2 mi WSW 6.9 mph - N/A   Mostly Cloudy
6:00 AM 51 °F - 51 °F 100% 30.06 in 16 mi West 8.9 mph - - Rain Light Drizzle
6:00 AM 51.8 °F - 51.8 °F 100% 30.04 in 6.2 mi West 8.1 mph - N/A   Overcast
6:30 AM 50.0 °F - 50.0 °F 100% 30.06 in 6.2 mi WNW 15.0 mph - N/A   Mostly Cloudy
7:00 AM 48.2 °F - 48.2 °F 100% 30.09 in 6.2 mi NW 11.5 mph - N/A Rain Light Rain
7:30 AM 48.2 °F - 48.2 °F 100% 30.09 in 6.2 mi NW 10.4 mph - N/A Rain Light Rain
8:00 AM 48.2 °F - 48.2 °F 100% 30.09 in 6.2 mi NNW 9.2 mph - N/A   Mostly Cloudy
8:30 AM 48.2 °F - 46.4 °F 93% 30.12 in 6.2 mi NNW 12.7 mph - N/A   Mostly Cloudy
9:00 AM 46.4 °F 41.5 °F 46.4 °F 100% 30.12 in 6.2 mi NW 10.4 mph - N/A   Mostly Cloudy
9:30 AM 46.4 °F 41.1 °F 46.4 °F 100% 30.15 in 6.2 mi NW 11.5 mph - N/A   Scattered Clouds
10:00 AM 46.4 °F 40.7 °F 44.6 °F 93% 30.15 in 6.2 mi NW 12.7 mph - N/A   Scattered Clouds
10:30 AM 46.4 °F 41.1 °F 44.6 °F 93% 30.18 in 6.2 mi NW 11.5 mph - N/A   Scattered Clouds
11:00 AM 46.4 °F 41.1 °F 44.6 °F 93% 30.18 in 6.2 mi NW 11.5 mph - N/A   Scattered Clouds
11:30 AM 48.2 °F - 44.6 °F 87% 30.18 in 6.2 mi NW 8.1 mph - N/A   Partly Cloudy
12:00 PM 48 °F - 45 °F 86% 30.22 in 31 mi NW 11.2 mph - -   Partly Cloudy
12:00 PM 48.2 °F - 44.6 °F 87% 30.18 in 6.2 mi NW 10.4 mph - N/A   Scattered Clouds
12:30 PM 50.0 °F - 44.6 °F 82% 30.21 in 6.2 mi NW 12.7 mph - N/A   Scattered Clouds
1:00 PM 48.2 °F - 44.6 °F 87% 30.18 in 6.2 mi NW 11.5 mph - N/A   Scattered Clouds
1:30 PM 48.2 °F - 42.8 °F 82% 30.21 in 6.2 mi NW 10.4 mph - N/A   Scattered Clouds
2:00 PM 50.0 °F - 42.8 °F 76% 30.21 in 6.2 mi NW 11.5 mph - N/A   Scattered Clouds
2:30 PM 50.0 °F - 42.8 °F 76% 30.21 in 6.2 mi NW 12.7 mph - N/A   Partly Cloudy
3:00 PM 50.0 °F - 42.8 °F 76% 30.21 in 6.2 mi WNW 10.4 mph - N/A   Partly Cloudy
3:30 PM 48.2 °F - 42.8 °F 82% 30.21 in 6.2 mi NW 5.8 mph - N/A   Partly Cloudy
4:00 PM 48.2 °F - 42.8 °F 82% 30.21 in 6.2 mi NW 5.8 mph - N/A   Partly Cloudy
4:30 PM 46.4 °F 44.3 °F 41.0 °F 81% 30.21 in 6.2 mi NNW 4.6 mph - N/A   Partly Cloudy
5:00 PM 46.4 °F 43.5 °F 41.0 °F 81% 30.21 in 6.2 mi NW 5.8 mph - N/A   Partly Cloudy
5:30 PM 44.6 °F 42.2 °F 41.0 °F 87% 30.24 in 6.2 mi NNW 4.6 mph - N/A   Partly Cloudy
6:00 PM 44 °F - 41 °F 83% 30.27 in 25 mi NNW 4.5 mph - -   Scattered Clouds
6:00 PM 44.6 °F 42.2 °F 41.0 °F 87% 30.24 in 6.2 mi NNW 4.6 mph - N/A   Partly Cloudy
6:30 PM 42.8 °F 41.1 °F 41.0 °F 93% 30.24 in 6.2 mi NW 3.5 mph - N/A   Partly Cloudy
7:00 PM 42.8 °F 41.1 °F 41.0 °F 93% 30.24 in 6.2 mi NW 3.5 mph - N/A   Partly Cloudy
7:30 PM 42.8 °F 39.3 °F 39.2 °F 87% 30.24 in 6.2 mi NW 5.8 mph - N/A   Partly Cloudy
8:00 PM 42.8 °F 38.6 °F 41.0 °F 93% 30.27 in 6.2 mi WNW 6.9 mph - N/A   Partly Cloudy
8:30 PM 41.0 °F 37.1 °F 41.0 °F 100% 30.27 in 6.2 mi WNW 5.8 mph - N/A   Partly Cloudy
9:00 PM 41.0 °F 37.1 °F 39.2 °F 93% 30.27 in 6.2 mi WNW 5.8 mph - N/A   Partly Cloudy
9:30 PM 41.0 °F 37.1 °F 39.2 °F 93% 30.27 in 6.2 mi WNW 5.8 mph - N/A   Partly Cloudy
10:00 PM 39.2 °F 34.2 °F 39.2 °F 100% 30.27 in 6.2 mi NW 6.9 mph - N/A   Partly Cloudy
10:30 PM 39.2 °F 34.2 °F 39.2 °F 100% 30.27 in 6.2 mi WNW 6.9 mph - N/A   Partly Cloudy
11:00 PM 39.2 °F 35.9 °F 39.2 °F 100% 30.27 in 6.2 mi NW 4.6 mph - N/A   Partly Cloudy
11:30 PM 39.2 °F 37.0 °F 39.2 °F 100% 30.24 in 6.2 mi NNW 3.5 mph - N/A   Partly Cloudy